Welcome to the New NWS' Forecast!
Most changes are behind the scenes, but click here for differences you might notice.
Latest weather observations around

Jonesboro, Jonesboro Municipal Airport (KJBR)

Using English Units (Switch to International System of Units)
Date/ Time (CDT) Wind (mph) Vis. (mi) Weather Sky Cond. Temp (°F) Rel. Humidity Wind Chill (°F) Heat Index (°F) Pressure Precip. (in)
Air Dwpt 6 hour Altimeter (inHg) Sea level (inHg) 1 hr 3 hr 6 hr
Max Min
Apr 28 05:53 ENE 8 10 Mostly Cloudy BKN120 56 53     90%     29.84 29.83      
Apr 28 04:53 NE 6 10 Partly Cloudy SCT110 56 53     90%     29.81 29.8      
Apr 28 03:53 NNE 5 10 Partly Cloudy SCT120 54 52     93%     29.81 29.81      
Apr 28 02:53 NE 3 10 Mostly Clear FEW120 53 51     93%     29.81 29.8      
Apr 28 01:53 NE 5 10 Clear CLR 54 52     93%     29.83 29.82      
Apr 28 00:53 Calm 10 Clear CLR 55 52     89%     29.82 29.82      
Apr 27 23:53 NNE 5 10 Clear CLR 54 52     93%     29.81 29.81      
Apr 27 22:53 ENE 5 10 Clear CLR 54 52     93%     29.81 29.81      
Apr 27 21:53 ESE 6 10 Clear CLR 61 53     75%     29.81 29.81      
Apr 27 20:53 ESE 7 10 Clear CLR 62 53     72%     29.8 29.8      
Apr 27 19:53 SE 5 10 Clear CLR 63 52     67%     29.79 29.79      
Apr 27 19:39 SSE 7 10 Mostly Clear FEW002 63 51     65%     29.78        
Apr 27 18:53 SSE 8 10 Clear CLR 65 51     61%     29.79 29.78      
Apr 27 17:53 S 7 10 Clear CLR 65 51     61%     29.8 29.8      
Apr 27 16:53 SSE 5 10 Clear CLR 64 49     58%     29.79 29.78      
Apr 27 15:53 S 9 10 Clear CLR 64 51     63%     29.8 29.8      
Apr 27 14:53 3 10 Clear CLR 63 49     60%     29.82 29.81      
Apr 27 13:53 7 10 Clear CLR 62 49     62%     29.83 29.83      
Apr 27 12:53 W 9 10 Partly Cloudy SCT030 61 49     64%     29.85 29.84      
Apr 27 11:53 W 8 10 Mostly Clear FEW028 59 48     67%     29.84 29.83      
Apr 27 11:46 W 7 10 Partly Cloudy SCT028 58 47     67%     29.84        
Apr 27 11:02 W 9 10 Mostly Cloudy BKN027 58 46     65%     29.83        
Apr 27 10:53   10 Partly Cloudy SCT026 56 45     67%     29.83 29.83      
Apr 27 10:48 5 10 Mostly Clear FEW026 55 45     67%     29.83        
Apr 27 09:53 W 8 10 Mostly Cloudy BKN026 55 45     69%     29.81 29.8      
Apr 27 09:50 WSW 7 10 Mostly Cloudy BKN026 55 45     67%     29.81        
Apr 27 09:18 W 5 10 Partly Cloudy SCT022 53 45     74%     29.8        
Apr 27 08:53 W 5 10 Mostly Cloudy BKN025 BKN029 53 44     71%     29.79 29.79      
Apr 27 07:53 WNW 9 10 Cloudy OVC028 52 43     71%     29.79 29.78      
Apr 27 05:53 W 3 10 Cloudy OVC019 50 45     83% 49   29.74 29.73      
Apr 27 04:53 WNW 9 10 Cloudy OVC023 50 44     80% 46   29.7 29.69      
Apr 27 03:53 WNW 13 10 Cloudy OVC018 50 45     83% 45   29.67 29.66      
Apr 27 02:53 WNW 11 10 Cloudy OVC020 50 45     83% 46   29.65 29.65      
Apr 27 01:53 WNW 11 10 Cloudy BKN017 OVC040 50 46     86% 46   29.65 29.64      
Apr 27 01:40 WNW 11 10 Cloudy SCT015 OVC039 51 47     86%     29.65        
Apr 27 00:34 WNW 15 10 Cloudy BKN013 BKN018 OVC030 53 50     89%     29.62   0    
Apr 27 00:27 WNW 14 8 Cloudy SCT013 BKN018 OVC030 53 50     89%     29.62   0    
Apr 27 00:17 W 13 9 Cloudy SCT013 OVC031 53 51     93%     29.61   0    
Apr 27 00:04 WNW 14 10 Cloudy FEW011 BKN029 OVC037 53 51     93%     29.6   0    
Apr 26 23:53 WNW 17 10 Light Rain FEW010 OVC031 53 51     93%     29.6 29.59 0    
Apr 26 23:00 WNW 20 5 Rain and Fog/Mist SCT006 BKN019 OVC029 56 53     90%     29.56   0    
Apr 26 22:53 W 18 5 Rain and Fog/Mist BKN006 BKN012 OVC019 57 55     93%     29.56 29.56 0    
Apr 26 21:40 S 7 10 Mostly Cloudy BKN006 BKN090 BKN110 61 59     93%     29.55   0    
Apr 26 21:20 SSE 11 10 Mostly Cloudy SCT005 SCT055 BKN090 60 59     96%     29.52   0    
Apr 26 20:53 E 13 5 Heavy Rain and Fog/Mist SCT003 BKN065 OVC075 59 58     96%     29.45        
Apr 26 20:41 SE 5 5 Heavy Rain and Fog/Mist SCT004 OVC065 59 58     96%     29.49        
Apr 26 19:59 SE 3 6 Thunderstorms and Rain and Fog/Mist SCT005 BKN065 OVC080 58 57     97%     29.52   0    
Apr 26 19:53 E 5 6 Heavy Rain and Fog/Mist BKN005 BKN060 OVC080 58 57     97%     29.5 29.5      
Apr 26 19:51 E 5 6 Rain and Fog/Mist SCT005 BKN055 OVC085 57 57     100%     29.51        
Apr 26 19:36 SE 7 6 Thunderstorms and Rain and Fog/Mist FEW007 BKN075 OVC090 58 57     97%     29.52        
Apr 26 19:28 ESE 5 7 Rain FEW007 OVC085 58 56     93%     29.51        
Apr 26 18:31 SSE 10 10 Thunderstorms and Rain FEW060 BKN085 OVC110 61 59     93%     29.5   0    
Apr 26 18:10 E 7 10 Light Rain FEW035 SCT090 OVC110 61 59     93%     29.48   0    
Apr 26 17:57 ESE 9 6 Thunderstorms and Rain and Fog/Mist SCT023 OVC095 61 59     93%     29.49   0    
Apr 26 17:51 SSE 8 2 Thunderstorms and Heavy Rain and Fog/Mist BKN028 BKN036 OVC095 61 59     93%     29.49 29.48      
Apr 26 17:50 SSE 7 2 Thunderstorms and Heavy Rain and Fog/Mist BKN028 BKN036 OVC090 61 59     94%     29.49        
Apr 26 17:38 SSW 7 0.75 Thunderstorms and Heavy Rain and Fog/Mist BKN015 OVC030 61 60     97%     29.54        
Apr 26 17:32   1.75 Thunderstorms and Heavy Rain and Fog/Mist FEW021 BKN030 OVC039 62 59     90%              
Apr 26 17:30 W 10 2.5 Thunderstorms and Heavy Rain and Fog/Mist BKN028 OVC035 62 59     90%     29.52        
Apr 26 17:28   2.5 Heavy Rain and Fog/Mist BKN031 OVC039 61 59     93%     29.51        
Apr 26 17:13 NNW 8 2.5 Heavy Rain and Fog/Mist OVC029 62 59     90%     29.48        
Apr 26 17:10 NNW 9 3 Heavy Rain and Fog/Mist FEW019 FEW026 OVC031 62 59     90%     29.48        
Apr 26 16:59 N 13 9 Rain FEW008 SCT026 OVC032 62 59     90%     29.46   0    
Apr 26 16:53   4 Rain and Fog/Mist FEW008 BKN028 OVC034 62 60     93%     29.47 29.47 0    
Apr 26 16:44   10 Cloudy FEW006 SCT019 OVC034 63 60     90%     29.46   0    
Apr 26 16:26 N 7 10 Cloudy OVC033 65 63     93%     29.45   0    
Apr 26 16:15 NNW 5 10 Cloudy SCT027 OVC033 64 62     93%     29.46   0    
Apr 26 15:53 NNE 9 9 Light Rain OVC028 64 61     90%     29.47 29.46 0 0  
Apr 26 15:19 S 7 5 Light Rain FEW029 BKN034 OVC042 71 66     84%   72 29.51   0    
Apr 26 15:04 S 15 10 Cloudy BKN034 OVC070 74 64     71%   74 29.52        
Apr 26 14:53   10 Mostly Cloudy FEW032 BKN070 75 64     69%   75 29.52 29.51      
Apr 26 14:23 S 22 10 Mostly Cloudy and Windy FEW028 SCT047 BKN080 76 64     67%   76 29.52        
Apr 26 13:53 S 21 10 Cloudy and Windy BKN027 OVC034 74 64     71%   74 29.55 29.54      
Apr 26 13:10 S 21 10 Mostly Cloudy and Windy BKN027 BKN032 BKN100 75 64     69%   75 29.57        
Apr 26 12:53 S 23 10 Mostly Cloudy and Windy SCT027 SCT075 BKN100 76 64     67%   76 29.58 29.57      
Apr 26 12:37 S 21 10 Mostly Cloudy and Windy BKN026 BKN070 BKN100 75 64     69%   75 29.59        
Apr 26 12:21 S 18 10 Mostly Cloudy SCT026 BKN055 BKN070 76 64     67%   76 29.59        
Apr 26 11:53 S 22 10 Cloudy and Windy OVC025 75 64     69%   75 29.59 29.58      
Apr 26 10:53 S 16 10 Mostly Cloudy BKN021 BKN090 74 64     71%   74 29.6 29.59      
Apr 26 10:32 S 16 10 Cloudy BKN021 OVC060 72 63     73%   72 29.6        
Apr 26 09:53 S 16 10 Cloudy SCT021 OVC060 70 62     76%     29.6 29.59      
Apr 26 08:53 S 17 10 Cloudy FEW060 OVC080 70 61     73%     29.59 29.58      
Apr 26 07:53 SSE 10 10 Mostly Cloudy FEW040 BKN070 67 60     79%     29.59 29.58      
Apr 26 06:53 N 5 10 Cloudy FEW034 BKN043 OVC060 67 61     81%     29.61 29.6      
Apr 26 05:53 SW 8 10 Partly Cloudy FEW032 SCT075 68 60     76%     29.61 29.6      
Apr 26 04:53 SSW 10 10 Cloudy BKN050 OVC060 71 60     68%   71 29.6 29.59      
Apr 26 03:53 S 14 10 Partly Cloudy SCT049 70 60     71%     29.57 29.57      
Apr 26 02:53 S 9 10 Mostly Cloudy BKN048 68 57     68%     29.56 29.54      
Apr 26 01:53 S 10 10 Cloudy OVC045 67 56     68%     29.55 29.54      
Apr 26 00:53 S 11 10 Cloudy OVC044 67 55     66%     29.58 29.57      
Apr 25 23:53 S 10 10 Clear CLR 67 54     63%     29.57 29.56      
Apr 25 22:53 S 8 10 Clear CLR 67 54     63%     29.58 29.57      
Apr 25 21:53 S 5 10 Clear CLR 68 54     61%     29.58 29.57      
Apr 25 20:53 S 9 10 Clear CLR 71 53     53%   70 29.57 29.56      
Apr 25 19:53 S 11 10 Clear CLR 74 52     46%   73 29.55 29.54      
Apr 25 18:53 S 13 10 Clear CLR 77 51     40%   76 29.55 29.54      
Apr 25 17:53 S 22 10 Clear and Windy   79 50     36%   78 29.56 29.55      
Apr 25 16:53 S 17 10 Clear CLR 80 52     38%   80 29.57 29.56      
Apr 25 15:53 S 20 10 Clear and Windy CLR 81 52     37%   80 29.59 29.58      
Apr 25 14:53 S 24 10 Clear and Windy CLR 80 53     39%   80 29.61 29.6      
Apr 25 13:53 S 22 10 Clear and Windy CLR 78 52     40%   77 29.63 29.62      
Apr 25 12:53 S 17 10 Clear CLR 78 54     43%   78 29.66 29.65      
Apr 25 11:53 S 20 10 Clear and Windy CLR 75 51     43%   74 29.68 29.67      
Apr 25 09:53 S 9 10 Clear CLR 67 56     68%     29.72 29.71      
Apr 25 08:53 S 10 10 Clear CLR 62 56     80%     29.73 29.72      
Apr 25 07:53 SSE 13 10 Clear CLR 58 55     90%     29.73 29.72      
Apr 25 06:53 S 6 10 Clear CLR 56 54     93%     29.73 29.72      
Apr 25 05:53 S 6 10 Clear CLR 55 53     93%     29.71 29.7      
Apr 25 04:53 Calm 10 Clear CLR 53 52     96%     29.72 29.71      
Apr 25 03:53 SSE 3 10 Clear CLR 56 54     93%     29.72 29.72      
Apr 25 02:53 Calm 10 Clear CLR 52 52     100%     29.74 29.73      
Apr 25 01:53 E 3 10 Clear CLR 54 53     97%     29.75 29.74      
Apr 25 00:53 Calm 10 Clear CLR 55 54     96%     29.76 29.75      
Apr 24 23:53 Calm 10 Clear CLR 55 53     93%     29.75 29.74      
Apr 24 22:53 Calm 10 Clear CLR 57 54     89%     29.75 29.74      
Apr 24 21:53 Calm 10 Clear CLR 57 54     89%     29.75 29.74      
Apr 24 20:53 SSE 7 10 Clear CLR 65 54     68%     29.73 29.72      
Apr 24 19:53 SSE 5 10 Clear CLR 67 55     66%     29.74 29.73      
Apr 24 18:53 Calm 10 Clear CLR 74 50     43%   73 29.74 29.73      
Apr 24 17:53 ENE 3 10 Clear CLR 74 51     45%   73 29.75 29.74      
Apr 24 16:53 SE 7 10 Clear CLR 74 49     41%   73 29.76 29.75      
Apr 24 15:53 ESE 7 10 Clear CLR 75 49     40%   74 29.79 29.79      
Apr 24 14:53 Calm 10 Clear CLR 74 47     38%   73 29.82 29.81      
Apr 24 13:53 NNE 8 10 Clear CLR 73 48     41%   72 29.86 29.85      
Apr 24 12:53 NNE 8 10 Clear CLR 72 48     43%   71 29.9 29.89      
Apr 24 11:53 3 10 Clear CLR 70 47     44%     29.92 29.91      
Apr 24 10:53 NE 6 10 Clear CLR 68 46     45%     29.93 29.93      
Apr 24 09:53 3 10 Clear CLR 66 44     45%     29.93 29.93      
Apr 24 08:53 6 10 Clear CLR 61 42     50%     29.94 29.93      
Apr 24 07:53 NNW 8 10 Clear CLR 55 40     57%     29.93 29.93      
Apr 24 06:53 N 6 10 Clear CLR 50 38     63% 48   29.92 29.92      
Apr 24 05:53 NW 7 10 Clear CLR 49 37     63% 46   29.9 29.9      
Apr 24 04:53 NNW 6 10 Clear CLR 50 38     63% 48   29.89 29.88      
Apr 24 03:53 N 8 10 Clear CLR 52 37     57%     29.88 29.88      
Apr 24 02:53 N 6 10 Clear CLR 52 38     59%     29.89 29.88      
Apr 24 01:53 N 7 10 Clear CLR 55 37     51%     29.89 29.88      
Apr 24 00:53 N 8 10 Clear CLR 56 39     53%     29.91 29.9      
Apr 23 23:53 NW 7 10 Clear CLR 55 41     59%     29.93 29.92      
Apr 23 22:53 NNW 6 10 Clear CLR 56 41     57%     29.94 29.94      
Apr 23 21:53 NNW 6 10 Clear CLR 53 43     69%     29.96 29.96      
Apr 23 20:53 NW 5 10 Clear CLR 51 45     79%     29.96 29.96      
Apr 23 19:53 N 3 10 Clear CLR 60 42     51%     29.95 29.95      
Apr 23 18:53 NE 9 10 Clear CLR 65 40     40%     29.95 29.94      
Apr 23 17:53 ENE 14 10 Clear CLR 68 42     39%     29.94 29.93      
Apr 23 16:53 NNE 15 10 Clear CLR 69 39     33%     29.93 29.93      
Apr 23 15:53 N 11 10 Clear CLR 69 39     33%     29.93 29.93      
Apr 23 14:53 NNE 15 10 Clear CLR 68 40     36%     29.93 29.93      
Apr 23 13:53 N 10 10 Clear CLR 66 43     43%     29.94 29.94      
Apr 23 12:53 N 10 10 Clear CLR 63 43     48%     29.96 29.96      
Apr 23 11:53 N 10 10 Clear CLR 61 44     54%     29.98 29.98      
Apr 23 10:53 N 8 10 Clear CLR 58 44     60%     30 29.99      
Apr 23 09:53 N 14 10 Clear CLR 56 43     62%     29.99 29.99      
Apr 23 08:53 N 11 10 Clear CLR 53 42     66%     29.99 29.99      
Apr 23 07:53 NNW 9 10 Mostly Clear FEW085 51 43     74%     29.99 29.98      
Apr 23 06:53 NNW 7 10 Mostly Cloudy BKN070 50 44     80% 47   29.98 29.98     0
Apr 23 05:53 NNW 8 10 Cloudy OVC038 50 45     83% 47   29.96 29.96      
Apr 23 04:53 N 7 10 Cloudy FEW036 SCT065 OVC080 49 45     86% 46   29.95 29.95      
Apr 23 03:53 N 7 10 Mostly Cloudy BKN070 49 46     90% 46   29.94 29.94   0  
Apr 23 02:53 N 7 10 Cloudy OVC046 50 46     86% 47   29.95 29.95 0    
Apr 23 01:53 N 10 10 Light Rain OVC043 50 47     89% 46   29.97 29.96 0    
Apr 23 00:53 N 9 10 Cloudy OVC032 50 47     89% 46   29.98 29.98 0   0
Apr 23 00:17 N 9 9 Cloudy SCT016 OVC032 50 47     89% 46   29.98        
Apr 22 23:53 N 9 9 Cloudy BKN018 BKN023 OVC031 50 47     89% 46   29.98 29.98 0    
Apr 22 23:25 N 9 6 Light Rain and Fog/Mist FEW008 BKN019 OVC030 49 47     93% 45   29.99   0    
Apr 22 23:09 N 9 6 Light Rain and Fog/Mist FEW008 BKN013 OVC028 49 47     93% 45   29.99   0    
Apr 22 23:05 N 9 7 Cloudy BKN014 OVC028 49 47     93% 45   29.99        
Apr 22 22:53 N 9 6 Fog/Mist BKN015 OVC027 48 47     96% 44   30 30      
Apr 22 21:53 N 7 10 Cloudy FEW011 OVC021 50 47     89% 47   30 30   0  
Apr 22 21:33 N 8 9 Cloudy SCT011 BKN018 OVC022 50 47     89% 47   30        
Apr 22 20:53 N 7 10 Cloudy SCT006 BKN012 OVC021 50 48     93% 47   29.99 29.98 0    
Apr 22 20:45 N 9 6 Fog/Mist BKN008 OVC012 50 49     96% 46   29.99   0    
Apr 22 20:19 N 6 10 Cloudy SCT008 BKN013 OVC028 51 49     92%     29.98   0    
Apr 22 19:53 N 6 5 Fog/Mist BKN008 BKN013 OVC023 51 49     92%     29.98 29.98 0    
Apr 22 19:38 NNE 7 3 Light Rain and Fog/Mist BKN008 OVC011 51 49     92%     29.98   0    
Apr 22 19:17 N 8 5 Fog/Mist BKN010 OVC020 51 49     92%     29.97   0    
Apr 22 19:08 N 7 4 Fog/Mist BKN009 OVC013 51 49     92%     29.97   0    
Apr 22 19:00 N 8 3 Light Rain and Fog/Mist SCT008 OVC013 51 49     92%     29.96   0    
Apr 22 18:53 N 11 2.5 Light Rain and Fog/Mist BKN008 OVC013 51 49     92%     29.96 29.96 0   0
Apr 22 18:10 N 6 2 Light Rain and Fog/Mist BKN008 OVC012 51 50     96%     29.96   0    
Apr 22 17:53 N 8 3 Fog/Mist BKN008 OVC012 51 50     96%     29.95 29.95 0    
Apr 22 17:50 5 3 Light Rain and Fog/Mist SCT008 OVC012 52 50     94%     29.95   0    
Apr 22 17:48 N 7 2.5 Light Rain and Fog/Mist BKN008 OVC015 52 48     87%     29.95   0    
Apr 22 17:35 N 6 3 Light Rain and Fog/Mist BKN008 OVC013 52 50     93%     29.94   0    
Apr 22 17:24 N 9 7 Cloudy BKN010 OVC016 52 49     89%     29.94   0    
Apr 22 17:16 N 8 5 Light Rain and Fog/Mist BKN008 OVC014 52 49     89%     29.94   0    
Apr 22 16:53 NNE 8 10 Cloudy OVC010 52 49     89%     29.94 29.93      
Apr 22 15:53 N 9 10 Cloudy OVC010 52 48     86%     29.93 29.93      
Apr 22 14:53 NNE 8 10 Cloudy OVC010 52 48     86%     29.94 29.93      
Apr 22 13:53 NNE 9 10 Cloudy OVC010 51 48     89%     29.95 29.94      
Apr 22 13:09 NE 8 10 Cloudy OVC010 51 47     86%     29.95        
Apr 22 12:53 NNE 11 10 Cloudy OVC009 51 48     89%     29.95 29.94     0
Apr 22 11:53 NNE 15 10 Cloudy OVC009 51 48     89%     29.94 29.93 0    
Apr 22 11:31 NNE 10 10 Cloudy OVC009 51 48     89%     29.94   0    
Apr 22 11:12 NNE 13 10 Cloudy OVC010 51 48     89%     29.93   0    
Apr 22 10:53 NE 15 8 Cloudy BKN008 OVC013 51 48     89%     29.93 29.92 0    
Apr 22 10:12 NNE 11 3 Light Rain and Fog/Mist OVC008 51 50     96%     29.92   0    
Apr 22 09:53 NNE 14 2 Light Rain and Fog/Mist OVC008 53 51     93%     29.92 29.91 0 0  
Apr 22 09:43 NNE 11 3 Light Rain and Fog/Mist BKN009 OVC013 54 52     93%     29.91   0    
Apr 22 09:28 NNE 9 2 Light Rain and Fog/Mist OVC007 53 51     93%     29.91   0    
Apr 22 08:53 NNE 10 4 Light Rain and Fog/Mist OVC006 53 52     96%     29.9 29.9 0    
Apr 22 08:41 NNE 9 2.5 Light Rain and Fog/Mist OVC006 53 52     96%     29.9   0    
Apr 22 07:53 NNE 9 10 Cloudy OVC007 54 52     93%     29.89 29.89 0    
Apr 22 06:53 NNE 5 10 Cloudy OVC007 53 51     93%     29.87 29.87 0   0
Apr 22 05:53 E 7 10 Cloudy OVC007 53 51     93%     29.84 29.83      
Apr 22 04:53 NE 8 10 Cloudy OVC008 52 51     97%     29.84 29.84 0    
Apr 22 03:53 E 11 10 Cloudy OVC009 52 50     93%     29.86 29.85 0 0  
Apr 22 03:25 ENE 11 10 Mostly Cloudy BKN009 BKN120 51 50     96%     29.85   0    
Apr 22 02:53 NE 23 9 Light Rain FEW008 BKN095 OVC110 51 49     92%     29.84 29.83 0    
Apr 22 01:53 NNE 13 10 Light Rain FEW055 OVC090 51 49     92%     29.89 29.89 0    
Apr 22 01:42 NNE 16 9 Light Rain SCT027 OVC095 51 49     92%     29.89   0    
Apr 22 01:31 NE 17 3 Thunderstorms and Rain and Fog/Mist SCT008 BKN034 OVC100 50 49     96% 44   29.91   0    
Apr 22 01:28 NNE 14 1.75 Thunderstorms and Heavy Rain and Fog/Mist SCT008 BKN030 OVC046 50 49     96% 45   29.92   0    
Apr 22 01:23 NNE 16 1 Thunderstorms and Heavy Rain and Fog/Mist FEW008 BKN017 OVC047 50 49     96% 44   29.93   0    
Apr 22 01:17 N 16 1.5 Thunderstorms and Heavy Rain and Fog/Mist BKN008 BKN013 OVC047 51 49     92%         0    
Apr 22 01:15 N 14 4 Thunderstorms and Rain and Fog/Mist SCT008 BKN013 OVC047 52 50     93%     29.96   0    
Apr 22 01:10   10 Thunderstorms and Rain SCT008 OVC048 51 50     96%         0    
Apr 22 01:03 NE 22 9 Light Rain FEW008 OVC048 51 49     92%     29.81   0    
Apr 22 00:53 ENE 22 10 Light Rain OVC050 51 49     92%     29.84 29.83 0   0
Apr 22 00:43 NE 18 10 Light Rain BKN050 OVC070 52 49     89%     29.87   0    
Apr 22 00:36 NE 14 10 Cloudy FEW024 BKN055 OVC070 52 50     93%     29.89   0    
Apr 22 00:29 NE 17 10 Thunderstorms and Rain FEW019 BKN060 OVC080 52 50     93%     29.89   0    
Apr 22 00:19 ENE 13 10 Thunderstorms and Rain SCT015 BKN026 OVC070 52 50     93%     29.91   0    
Apr 21 23:53 NNW 15 6 Thunderstorms and Rain and Fog/Mist OVC012 52 50     93%     29.91 29.9 0    
Apr 21 23:37 N 16 10 Light Rain OVC012 53 49     86%     29.92   0    
Apr 21 23:13 ENE 18 10 Cloudy BKN013 OVC019 53 49     86%     29.87        
Apr 21 22:53 NE 18 10 Cloudy FEW012 BKN019 OVC095 53 49     86%     29.9 29.89      
Apr 21 21:53 NE 15 10 Mostly Cloudy BKN110 53 49     86%     29.92 29.91      
Apr 21 20:53 NE 18 10 Partly Cloudy FEW011 SCT120 54 49     83%     29.92 29.91      
Apr 21 20:50 NE 15 10 Mostly Cloudy SCT011 BKN120 54 50     88%     29.92        
Apr 21 20:24 NNE 15 10 Cloudy BKN010 OVC090 55 51     86%     29.93        
Apr 21 19:53 NE 13 10 Cloudy FEW010 OVC100 55 51     86%     29.91 29.91      
Apr 21 18:53 NNE 10 10 Mostly Cloudy BKN120 56 52     87%     29.92 29.91     0
Apr 21 17:53 NE 13 10 Cloudy OVC110 58 53     84%     29.91   0    
Apr 21 17:06 N 10 10 Light Rain SCT022 BKN032 OVC090 60 53     78%     29.98   0    
Apr 21 16:53   10 Cloudy SCT023 OVC032 61 53     75%     30.01        
Apr 21 15:53 ENE 13 10 Mostly Cloudy BKN041 BKN055 64 54     70%     29.9 29.89   0  
Apr 21 14:53 ENE 16 10 Mostly Clear FEW032 63 56     78%     29.9 29.89 0    
Apr 21 14:50 ENE 11 10 Partly Cloudy SCT030 63 55     77%     29.9   0    
Apr 21 14:19 ENE 13 10 Light Rain BKN029 BKN045 OVC070 59 54     83%     29.94   0    
Apr 21 13:53 ENE 16 10 Light Rain FEW024 OVC080 58 54     87%     29.94 29.93 0    
Apr 21 13:45 ENE 14 10 Cloudy SCT024 BKN060 OVC090 58 53     84%     29.94        
Apr 21 12:53 E 16 10 Cloudy SCT013 OVC027 57 53     87%     29.97 29.96 0   0
Apr 21 12:20 NNE 13 10 Light Rain BKN011 BKN017 OVC027 57 53     87%     30   0    
Apr 21 11:53 N 9 10 Light Rain FEW010 BKN017 OVC025 57 54     89%     30 29.99 0    
Apr 21 10:53 NNE 10 10 Cloudy OVC018 60 53     78%     30.02 30.01      
Apr 21 09:53 NE 21 10 Cloudy and Windy OVC017 60 53     78%     29.99 29.99      
Apr 21 08:53 NE 15 10 Cloudy BKN025 OVC030 60 53     78%     30 29.99      
Apr 21 08:17 NNE 14 10 Cloudy SCT013 SCT021 OVC028 62 54     75%     30        
Apr 21 07:53 NNE 18 10 Cloudy BKN012 BKN018 OVC030 64 59     84%     30.01 30      
Apr 21 07:48 N 11 10 Cloudy SCT012 BKN018 OVC038 64 61     88%     30.01        
Apr 21 07:16 NE 15 10 Mostly Cloudy FEW014 SCT026 BKN040 65 59     81%     29.99        
Apr 21 07:04 NE 14 10 Mostly Cloudy SCT014 BKN024 BKN043 65 60     84%     29.99        
Apr 21 06:53 NE 11 10 Mostly Cloudy BKN014 BKN042 BKN055 65 60     84%     29.99 29.98      
Apr 21 05:53 ENE 10 10 Cloudy SCT010 BKN045 OVC110 65 61     87%     29.97 29.96      
Apr 21 05:34 NE 10 10 Cloudy BKN011 OVC100 65 61     87%     29.97        
Apr 21 04:53 NE 8 10 Cloudy BKN055 OVC090 66 62     87%     29.97 29.96      
Apr 21 03:53 N 6 10 Cloudy BKN049 OVC065 65 61     87%     29.97 29.96      
Apr 21 02:53 Calm 10 Mostly Clear FEW047 64 60     87%     29.97 29.96      
Apr 21 01:53 NE 3 10 Mostly Clear FEW055 66 61     84%     29.97 29.96      
Apr 21 00:53 Calm 10 Mostly Cloudy BKN050 66 61     84%     29.99 29.98      
Apr 20 23:53 NNE 5 10 Mostly Cloudy FEW055 BKN100 66 61     84%     30 29.99      
Apr 20 22:53 NE 8 10 Clear CLR 67 62     84%     30 29.99      
Apr 20 21:53 NNE 6 10 Clear CLR 70 63     78%     30 29.99      
Apr 20 20:53 S 5 10 Clear CLR 73 63     71%   73 29.98 29.97      
Apr 20 19:53 SSW 9 10 Partly Cloudy SCT110 77 62     60%   77 29.97 29.96      
Apr 20 18:53 SW 11 10 Partly Cloudy SCT090 80 63     56%   81 29.97 29.96      
Apr 20 17:53 SW 11 10 Clear CLR 82 62     51%   83 29.96 29.95      
Apr 20 16:53 SW 18 10 Clear CLR 83 63     51%   84 29.95 29.94      
Apr 20 15:53 SSW 15 10 Clear CLR 83 63     51%   84 29.96 29.95      
Apr 19 15:53 SSW 16 10 Clear CLR 82 61     49%   83 30.04 30.03   0  
Apr 19 14:53 S 9 10 Mostly Cloudy FEW090 BKN110 83 63     51%   84 30.06 30.05 0    
Apr 19 13:53 SW 7 10 Partly Cloudy FEW049 SCT060 81 64     56%   83 30.09 30.08      
Apr 19 12:53 SW 15 10 Mostly Clear FEW039 81 65     58%   83 30.11 30.1      
Apr 19 11:53 SSW 11 10 Mostly Clear FEW033 79 67     67%   80 30.13 30.12      
Apr 19 10:53 WSW 11 10 Clear CLR 77 66     69%   78 30.14 30.13      
Apr 19 09:53 SW 10 10 Clear CLR 74 66     76%   75 30.13 30.12      
Apr 19 08:53 S 6 9 Partly Cloudy SCT002 67 66     97%     30.13 30.12      
Apr 19 08:39 S 5 3 Fog/Mist OVC002 66 66     100%     30.13        
Apr 19 08:24 S 3 1 Fog/Mist OVC002 65 64     97%     30.13        
Apr 19 08:15 S 6 0.75 Fog/Mist VV002 64 64     100%     30.13        
Apr 19 07:53 S 5 0.25 Fog VV002 63 63     100%     30.13 30.13      
Apr 19 06:53 Calm 0.25 Fog VV002 61 60     97%     30.12 30.11      
Apr 19 06:32 Calm 0.25 Fog OVC002 59 58     96%     30.12        
Apr 19 06:24 Calm 0.5 Fog BKN002 58 57     97%     30.11        
Apr 19 06:20 Calm 1 Fog/Mist VV003 58 57     97%     30.11        
Apr 19 06:04 Calm 0.5 Fog VV003 59 59     100%     30.1        
Apr 19 05:59 Calm 1.5 Fog/Mist CLR 60 60     100%     30.1        
Apr 19 05:53 Calm 6 Fog/Mist CLR 59 58     96%     30.1 30.09      
Apr 19 05:49 Calm 3 Fog/Mist CLR 59 57     94%     30.1        
Apr 19 05:20 Calm 1.75 Fog/Mist CLR 61 60     97%     30.1        
Apr 19 04:53 Calm 6 Fog/Mist CLR 59 58     96%     30.09 30.09      
Apr 19 03:53 Calm 9 Clear CLR 61 60     97%     30.09 30.08      
Apr 19 02:53 Calm 3 Fog/Mist CLR 58 58     100%     30.08 30.07      
Apr 19 01:53 Calm 10 Clear CLR 59 58     96%     30.08 30.08      
Apr 19 00:53 Calm 10 Clear CLR 60 60     100%     30.09 30.08      
Apr 18 22:53 SSE 3 10 Clear CLR 63 61     93%     30.09 30.08      
Apr 18 21:53 Calm 10 Clear CLR 64 61     90%     30.08 30.07      
Apr 18 20:53 Calm 10 Clear CLR 65 62     90%     30.06 30.06      
Apr 18 19:53 WSW 6 10 Clear CLR 70 62     76%     30.05 30.05      
Apr 18 18:53 SSW 9 10 Clear CLR 74 61     64%   74 30.05 30.05      
Apr 18 17:53 SW 9 10 Mostly Cloudy BKN043 75 62     64%   75 30.04 30.03      
Apr 18 16:53 SW 9 10 Clear CLR 76 63     64%   76 30.03 30.02      
Apr 18 16:08 WSW 5 10 Mostly Cloudy BKN031 77 64     64%   77 30.04        
Apr 18 16:01 SW 3 10 Mostly Cloudy BKN029 BKN035 77 64     64%   77 30.04        
Apr 18 15:53 Calm 10 Mostly Cloudy BKN031 76 64     67%   76 30.04 30.03      
Apr 18 14:53 WSW 3 10 Cloudy FEW028 BKN043 OVC060 74 64     71%   74 30.07 30.06      
Apr 18 14:24 WSW 8 10 Cloudy SCT027 BKN037 OVC048 73 63     71%   73 30.08        
Apr 18 14:08 SSW 8 10 Cloudy BKN026 BKN036 OVC050 72 63     73%   72 30.07        
Apr 18 13:53 WSW 5 10 Cloudy FEW023 BKN035 OVC050 73 64     73%   73 30.07 30.06      
Apr 18 13:23 3 10 Partly Cloudy SCT021 74 64     71%   74 30.07        
Apr 18 12:53 WSW 3 10 Cloudy BKN021 BKN028 OVC039 71 64     79%   72 30.08 30.07      
Apr 18 11:53 Calm 10 Cloudy OVC020 70 63     78%     30.08 30.08      
Apr 18 11:43 E 3 10 Cloudy SCT014 OVC020 70 63     78%     30.08        
Apr 18 11:00 Calm 9 Cloudy BKN010 OVC015 68 63     84%     30.09        
Apr 18 10:53 Calm 8 Cloudy OVC008 68 63     84%     30.09 30.09      
Apr 18 09:53 E 5 7 Cloudy OVC006 65 62     90%     30.09 30.08      
Apr 18 08:53 NE 6 7 Cloudy OVC005 64 61     90%     30.09 30.08      
Apr 18 07:53 ENE 5 8 Cloudy OVC006 63 59     87%     30.09 30.08      
Apr 18 06:53 NNE 5 8 Cloudy OVC006 62 59     90%     30.08 30.07      
Apr 18 05:53 NE 6 8 Cloudy OVC006 62 60     93%     30.07 30.06      
Apr 18 04:53 ENE 7 8 Cloudy OVC007 62 59     90%     30.06 30.05      
Apr 18 03:53 NE 8 7 Cloudy OVC007 62 60     93%     30.06 30.05      
Apr 18 02:53 NE 7 7 Cloudy OVC007 63 60     90%     30.05 30.05      
Apr 18 01:53 NE 5 7 Cloudy OVC007 63 61     93%     30.05 30.04      
Apr 18 01:35 NNE 7 7 Cloudy BKN007 OVC019 63 61     93%     30.06        
Apr 18 01:17 NNE 6 7 Cloudy FEW007 OVC020 64 61     90%     30.06        
Apr 18 00:53 NE 6 6 Fog/Mist FEW014 OVC020 64 62     93%     30.07 30.06     0
Apr 18 00:41 NE 6 5 Clear   64 62     93%     30.07        
Apr 17 23:53 NE 7 5 Clear   64 62     93%     30.07 30.06 0    
Apr 17 23:48 NE 7 5 Clear   64 63     94%     30.07   0    
Apr 17 23:33 NNE 8 5 Fog/Mist FEW006 BKN095 OVC120 64 62     93%     30.06   0    
Apr 17 22:57 NNE 8 5 Rain and Fog/Mist FEW013 BKN055 OVC075 64 62     93%     30.07   0    
Apr 17 22:53 NNE 8 5 Light Rain and Fog/Mist SCT012 BKN025 OVC075 64 62     93%     30.07 30.06 0    
Apr 17 22:28 NNE 7 7 Cloudy FEW007 BKN022 OVC085 65 62     90%     30.08   0    
Apr 17 22:25 NNE 6 7 Cloudy SCT023 BKN050 OVC085 65 62     90%     30.08   0    
Apr 17 22:03 NE 8 8 Cloudy SCT010 BKN024 OVC028 65 62     90%     30.08        
Apr 17 21:53 NE 8 8 Cloudy BKN010 OVC020 65 62     90%     30.08 30.07 0 0  
Apr 17 21:46 NE 9 8 Cloudy BKN010 OVC018 65 62     90%     30.07   0    
Apr 17 21:36 NE 9 8 Light Rain BKN008 BKN018 OVC090 65 62     90%     30.07   0    
Apr 17 21:18 NE 9 9 Light Rain SCT008 BKN016 OVC090 65 63     93%     30.06   0    
Apr 17 21:04 NE 6 9 Cloudy FEW008 OVC090 66 63     90%     30.06        
Apr 17 20:53 NE 7 10 Cloudy BKN090 OVC100 66 63     90%     30.05 30.05      
Apr 17 19:53 NE 6 10 Mostly Cloudy BKN100 66 62     87%     30.04 30.03      
Apr 17 18:53 ENE 9 10 Clear CLR 68 62     81%     30.03 30.02     0
Apr 17 17:53 ENE 10 10 Partly Cloudy FEW015 SCT120 68 62     81%     30.03 30.02      
Apr 17 17:10 E 14 10 Partly Cloudy FEW015 SCT027 SCT042 69 62     78%     30.03        
Apr 17 16:53 E 10 10 Cloudy FEW015 BKN029 OVC036 69 62     78%     30.03 30.02      
Apr 17 16:10 NE 8 10 Cloudy FEW017 SCT025 OVC036 70 63     78%     30.04        
Apr 17 15:53 ENE 9 10 Cloudy FEW014 BKN019 OVC032 70 63     78%     30.04 30.03   0  
Apr 17 15:37 ENE 9 10 Cloudy BKN016 OVC021 70 64     81%     30.05        
Apr 17 14:53 NE 11 10 Mostly Cloudy BKN012 69 64     84%     30.06 30.05 0    
Apr 17 14:41 NE 13 10 Mostly Cloudy BKN012 68 63     84%     30.07   0    
Apr 17 13:53 NNE 10 10 Light Rain BKN008 OVC050 68 65     90%     30.07 30.06 0    
Apr 17 13:24 NNE 9 10 Light Rain BKN007 BKN080 OVC100 67 64     90%     30.07   0    
Apr 17 13:09 NNE 14 10 Light Rain SCT007 SCT048 OVC095 67 64     90%     30.07   0    
Apr 17 12:53 NE 15 10 Light Rain OVC100 67 64     90%     30.07 30.06 0   0
Apr 17 11:53 NE 8 8 Light Rain FEW060 FEW080 OVC100 66 65     96%     30.07 30.07 0    
Apr 17 11:50 NE 8 8 Rain FEW060 FEW080 OVC100 66 64     94%     30.07   0    
Apr 17 11:36 N 5 6 Light Rain and Fog/Mist SCT055 BKN070 OVC095 66 64     93%     30.09   0    
Apr 17 11:25 N 6 3 Thunderstorms and Heavy Rain and Fog/Mist FEW011 BKN046 OVC075 65 64     97%     30.1   0    
Apr 17 11:17 N 7 2.5 Thunderstorms and Heavy Rain and Fog/Mist FEW009 BKN044 OVC070 65 64     97%     30.1   0    
Apr 17 11:15 N 7 2 Thunderstorms and Heavy Rain and Fog/Mist FEW011 BKN014 OVC075 65 64     97%     30.1   0    
Apr 17 11:06 NW 7 0.75 Heavy Rain and Fog/Mist BKN011 OVC018 65 64     97%     30.11   0    
Apr 17 10:58 WNW 7 1.5 Thunderstorms and Heavy Rain and Fog/Mist OVC011 66 64     93%     30.11   0    
Apr 17 10:53 NW 5 3 Thunderstorms and Rain and Fog/Mist OVC011 66 64     93%     30.1 30.09 0    
Apr 17 10:30 Calm 10 Light Rain BKN013 OVC019 68 63     84%     30.09   0    
Apr 17 10:02 NE 7 10 Cloudy FEW012 OVC018 68 63     84%     30.08        
Apr 17 09:53 NE 6 10 Cloudy BKN012 OVC018 68 63     84%     30.08 30.07   0  
Apr 17 09:40 NE 5 10 Cloudy BKN012 OVC018 68 64     87%     30.08        
Apr 17 08:53 ENE 6 10 Mostly Cloudy BKN021 67 63     87%     30.07 30.06      
Apr 17 07:53 NE 6 10 Mostly Cloudy FEW039 BKN075 66 63     90%     30.06 30.05 0    
Apr 17 06:53 NE 5 10 Mostly Cloudy BKN037 BKN060 65 62     90%     30.06 30.05      
Apr 17 05:53 ENE 5 10 Mostly Cloudy SCT042 BKN055 64 62     93%     30.05 30.04      
Apr 17 04:53 Calm 10 Cloudy OVC050 65 62     90%     30.05 30.04      
Apr 17 03:53 Calm 10 Clear   62 60     93%     30.04 30.03      
Apr 17 02:53 NE 5 10 Mostly Clear FEW060 63 61     93%     30.04 30.03      
Apr 17 01:53 N 3 10 Partly Cloudy SCT055 64 61     90%     30.05 30.04      
Apr 17 00:53 SE 3 10 Partly Cloudy SCT100 65 61     87%     30.06 30.05      
Apr 16 23:53 Calm 10 Cloudy OVC100 69 62     78%     30.07 30.06      
Apr 16 22:53 Calm 10 Cloudy OVC085 67 61     81%     30.08 30.07      
Apr 16 21:53 S 7 10 Mostly Clear FEW090 68 61     78%     30.08 30.07      
Apr 16 20:53 SSW 3 10 Mostly Cloudy BKN090 71 60     68%   71 30.09 30.08      
Apr 16 19:53 WSW 6 10 Clear CLR 72 60     66%   72 30.05 30.04      
Apr 16 18:53 WSW 13 10 Clear CLR 76 59     56%   76 30.04 30.03      
Apr 16 17:53 SW 11 10 Clear CLR 77 61     58%   77 30.03 30.02      
Apr 16 16:53 SSW 13 10 Clear CLR 78 58     50%   78 30.01 30      
Apr 16 15:53 SW 15 10 Clear CLR 78 61     56%   78 30.01 30.01      
Apr 16 14:53 WSW 14 10 Partly Cloudy SCT042 77 62     60%   77 30.07 30.06      
Apr 16 13:53 SW 20 10 Mostly Clear and Windy FEW040 77 61     58%   77 30.09 30.08      
Apr 16 12:53 SW 20 10 Clear and Windy CLR 78 62     58%   78 30.1 30.09      
Apr 16 11:53 SSW 20 10 Mostly Clear and Windy FEW085 78 64     62%   79 30.11 30.1      
Apr 09 00:53 S 11 10 Clear CLR 60 46     60%     29.92 29.91      
Apr 08 23:53 S 8 10 Clear CLR 60 46     60%     29.93 29.92      
Apr 08 22:53 S 11 10 Clear CLR 63 46     54%     29.93 29.92      
Apr 08 21:53 SSE 9 10 Clear CLR 65 46     50%     29.93 29.93      
Apr 08 20:53 S 8 10 Clear CLR 65 46     50%     29.92 29.92      
Apr 08 19:53 S 10 10 Clear CLR 69 46     44%     29.92 29.91      
Apr 08 18:53 S 10 10 Clear CLR 72 47     41%   71 29.92 29.91      
Apr 08 17:53 SSW 18 10 Clear CLR 74 45     36%   73 29.93 29.92      
Apr 08 16:53 SSW 17 10 Clear CLR 75 47     37%   74 29.94 29.94      
Apr 08 15:53 SSW 18 10 Clear CLR 76 48     37%   75 29.97 29.96      
Apr 08 14:53 SSW 18 10 Clear CLR 75 47     37%   74 30 29.99      
Apr 08 13:53 S 14 10 Clear CLR 73 45     37%   72 30.04 30.03      
Apr 08 12:53 SSW 13 10 Clear CLR 71 44     38%   70 30.07 30.07      
Apr 08 11:53 SSW 17 10 Clear CLR 68 41     37%     30.09 30.09      
Apr 08 10:53 SSW 17 10 Clear CLR 66 40     38%     30.1 30.1      
Apr 08 09:53 S 10 10 Clear CLR 62 40     44%     30.1 30.1      
Apr 08 08:53 S 9 10 Clear CLR 55 41     59%     30.11 30.11      
Apr 08 07:53 SSE 5 10 Clear CLR 50 40     68% 48   30.12 30.11      
Apr 08 06:53 Calm 10 Clear CLR 41 38     89%     30.1 30.1      
Apr 08 05:53 Calm 10 Clear CLR 40 37     89%     30.09 30.09      
Apr 08 04:53 Calm 10 Clear CLR 41 37     86%     30.09 30.09      
Apr 08 03:53 Calm 10 Clear CLR 41 37     86%     30.08 30.08      
Apr 08 02:53 Calm 10 Clear CLR 42 37     82%     30.09 30.08      
Apr 08 01:53 Calm 10 Clear CLR 44 37     76%     30.09 30.09      
Apr 08 00:53 Calm 10 Clear CLR 45 37     74%     30.1 30.09      
Apr 07 23:53 Calm 10 Clear CLR 45 38     76%     30.1 30.1      
Notice The following observation data may not be complete
Apr 07 22:53 Calm 10 Clear CLR   38      %     30.1 30.1      
Apr 07 21:53 Calm 10 Clear CLR 50 36     58%     30.11 30.11      
Apr 07 20:53 S 3 10 Clear CLR 53 36     52%     30.12 30.11      
Apr 07 19:53 S 6 10 Clear CLR 56 36     47%     30.11 30.11      
Apr 07 18:53 SE 5 10 Clear CLR 64 30     28%     30.11 30.11      
Apr 07 17:53 Calm 10 Clear CLR 65 31     28%     30.11 30.11      
Apr 07 16:53 NNE 3 10 Clear CLR 66 33     29%     30.13 30.12      
Apr 07 15:53 6 10 Clear CLR 65 29     26%     30.15 30.14      
Apr 07 14:53 5 10 Clear CLR 64 30     28%     30.18 30.17      
Apr 07 13:53   10 Clear CLR 63 33     33%     30.2 30.2      
Apr 07 12:53 NW 9 10 Clear CLR 60 33     36%     30.22 30.22      
Apr 07 11:53 N 7 10 Clear CLR 59 33     37%     30.23 30.23      
Apr 07 10:53 NNW 9 10 Clear CLR 57 33     40%     30.24 30.24      
Apr 07 09:53 NNW 8 10 Clear CLR 55 34     45%     30.24 30.24      
Apr 07 08:53 N 9 10 Clear CLR 52 35     52%     30.24 30.23      
Apr 07 07:53 NW 8 10 Clear CLR 47 34     60% 43   30.23 30.23      
Apr 07 06:53 W 7 10 Clear CLR 44 33     65% 40   30.22 30.21      
Apr 07 05:53 NW 7 10 Clear CLR 43 33     68% 39   30.2 30.19      
Apr 07 04:53 WNW 7 10 Clear CLR 44 33     65% 40   30.19 30.19      
Apr 07 03:53 WNW 7 10 Clear CLR 44 33     65% 40   30.18 30.18      
Apr 07 02:53 WNW 6 10 Clear CLR 45 33     63% 42   30.17 30.17      
Apr 07 01:53 WNW 6 10 Clear CLR 46 34     63% 43   30.17 30.16      
Apr 07 00:53 WNW 5 10 Clear CLR 48 32     54% 46   30.16 30.16      
Apr 06 23:53 NNW 3 10 Clear CLR 51 31     46%     30.15 30.15      
Apr 06 22:53 NW 6 10 Clear CLR 51 31     46%     30.14 30.13      
Apr 06 21:53 NW 7 10 Clear CLR 53 30     41%     30.12 30.12      
Apr 06 20:53 NW 6 10 Clear CLR 55 30     38%     30.1 30.09      
Apr 06 19:53 NW 7 10 Clear CLR 58 29     33%     30.07 30.07      
Apr 06 18:53 NW 14 10 Clear CLR 61 27     27%     30.05 30.05      
Apr 06 17:53 NW 17 10 Clear CLR 63 30     29%     30.05 30.04      
Apr 06 16:53 WNW 14 10 Mostly Clear FEW080 64 32     30%     30.04 30.03      
Apr 06 15:53 NW 18 10 Mostly Cloudy SCT080 BKN100 63 33     33%     30.04 30.04      
Apr 06 14:53 WNW 17 10 Mostly Cloudy SCT075 BKN095 64 35     34%     30.04 30.04      
Apr 06 13:53 WNW 16 10 Mostly Cloudy FEW070 BKN090 64 38     38%     30.06 30.05      
Apr 06 12:53 NW 17 10 Mostly Cloudy SCT070 BKN085 61 38     42%     30.07 30.06      
Apr 06 11:53 WNW 14 10 Mostly Clear FEW060 59 38     45%     30.07 30.07      
Apr 06 10:53 WNW 18 10 Clear CLR 57 38     49%     30.08 30.08      
Apr 06 09:53 WNW 16 10 Clear CLR 54 38     55%     30.07 30.06      
Apr 06 08:53 NW 15 10 Clear CLR 51 36     56%     30.05 30.04      
Apr 06 07:53 WNW 14 10 Clear CLR 48 36     63% 42   30.03 30.03      
Apr 06 06:53 WNW 11 10 Clear CLR 45 35     68% 39   29.99 29.98      
Apr 06 05:53 WNW 9 10 Clear CLR 45 36     71% 40   29.95 29.95      
Apr 06 04:53 W 13 10 Clear CLR 46 36     68% 40   29.92 29.92      
Apr 06 03:53 W 13 10 Clear CLR 47 36     65% 41   29.91 29.9      
Apr 06 02:53 WNW 13 10 Mostly Cloudy BKN043 48 36     63% 43   29.9 29.9      
Apr 06 01:53 WNW 15 10 Mostly Cloudy BKN042 49 37     63% 43   29.89 29.89      
Apr 06 00:53 NW 15 10 Mostly Cloudy BKN043 49 36     61% 43   29.88 29.88      
Apr 05 23:53 WNW 17 10 Mostly Cloudy BKN044 50 37     61% 44   29.86 29.85      
Apr 05 22:53 WNW 14 10 Mostly Cloudy BKN043 50 37     61% 45   29.85 29.85      
Apr 05 21:53 WNW 20 10 Mostly Cloudy and Windy FEW042 BKN049 BKN055 50 38     63% 44   29.83 29.83      
Apr 05 20:53 WNW 20 10 Cloudy and Windy SCT050 SCT055 OVC100 50 37     61% 44   29.81 29.81      
Apr 05 19:53 WNW 17 10 Cloudy SCT037 OVC090 51 40     65%     29.77 29.77      
Apr 05 18:53 W 24 10 Mostly Cloudy and Windy BKN080 53 39     59%     29.73 29.73     0
Apr 05 17:53 W 18 10 Cloudy FEW040 OVC090 55 43     64%     29.7 29.7 0    
Apr 05 17:02 WNW 22 6 Light Rain FEW014 SCT031 OVC040 53 47     80%     29.68   0    
Apr 05 16:53 W 14 2 Rain and Fog/Mist FEW014 BKN020 OVC040 54 51     90%     29.68 29.67 0    
Apr 05 16:35 W 14 9 Light Rain SCT016 BKN024 OVC070 56 52     87%     29.66   0    
Apr 05 15:53 W 21 5 Light Rain BKN038 OVC055 56 50     80%     29.64 29.64 0 0  
Apr 05 14:53 SW 24 10 Clear and Windy   62 48     60%     29.61 29.61      
Apr 05 13:53 WSW 24 10 Cloudy and Windy SCT042 BKN049 OVC060 63 47     56%     29.61 29.6      
Apr 05 12:53 WSW 25 10 Partly Cloudy and Windy SCT038 63 47     56%     29.59 29.59      
Apr 05 11:53 W 24 10 Partly Cloudy and Windy SCT055 63 50     63%     29.59 29.58      
Apr 05 11:01 WSW 16 10 Mostly Cloudy SCT027 SCT032 BKN060 67 56     68%     29.57        
Apr 05 10:53 WSW 17 10 Mostly Cloudy BKN029 BKN036 BKN055 66 55     68%     29.57 29.56      
Apr 05 10:45 WSW 21 10 Mostly Cloudy and Windy BKN029 BKN034 65 55     70%     29.57        
Apr 05 09:53 SSE 8 10 Mostly Clear FEW060 64 53     67%     29.57 29.56      
Apr 05 08:53 ESE 7 10 Mostly Cloudy BKN065 61 53     75%     29.59 29.59      
Apr 05 07:53 ESE 7 10 Mostly Cloudy BKN070 60 53     78%     29.61 29.6      
Apr 05 06:53 E 11 10 Mostly Cloudy BKN090 58 53     84%     29.6 29.59     0
Apr 05 05:53 ESE 15 10 Mostly Clear FEW100 59 53     81%     29.62 29.61 0    
Apr 05 04:53 E 7 10 Clear   59 52     78%     29.67 29.66      
Apr 05 03:53 N 5 10 Cloudy FEW055 OVC100 61 51     70%     29.7 29.69      
Apr 05 02:53 NW 14 10 Mostly Cloudy BKN085 BKN110 63 50     63%     29.7 29.69      
Apr 05 02:25 NW 18 10 Cloudy FEW040 BKN080 OVC110 65 50     58%     29.7        
Apr 05 01:53 SE 3 10 Mostly Clear FEW100 63 57     81%     29.65 29.64      
Apr 05 00:53 E 3 10 Clear CLR 61 57     87%     29.67 29.66      
Apr 04 23:53 SE 3 10 Clear CLR 62 57     84%     29.67 29.67      
Apr 04 22:53 NE 3 10 Clear CLR 61 57     87%     29.68 29.67      
Apr 04 21:53 SE 8 10 Clear CLR 67 58     73%     29.67 29.66      
Apr 04 20:53 SE 8 10 Clear CLR 71 58     63%   71 29.68 29.67      
Apr 04 19:53 SE 9 10 Clear CLR 72 58     61%   72 29.69 29.68      
Apr 04 18:53 SSE 13 10 Clear CLR 76 55     48%   75 29.7 29.69      
Apr 04 17:53 SSE 13 10 Clear CLR 78 56     47%   78 29.7 29.69      
Apr 04 16:53 ESE 7 10 Clear CLR 79 56     45%   79 29.71 29.7      
Apr 04 15:53 SSE 5 10 Clear CLR 78 54     43%   78 29.72 29.72      
Apr 04 14:53 S 11 10 Clear CLR 78 56     47%   78 29.75 29.74      
Apr 04 13:53 SSE 11 10 Clear CLR 76 55     48%   75 29.76 29.76      
Apr 04 12:53   10 Clear CLR 74 56     53%   74 29.78 29.78      
Apr 04 11:53 S 10 10 Clear CLR 73 56     55%   73 29.8 29.79      
Apr 04 10:53 ESE 7 10 Clear CLR 69 54     59%     29.81 29.8      
Apr 04 08:53 SW 3 10 Clear CLR 61 55     81%     29.82 29.81      
Apr 04 07:53 Calm 10 Clear CLR 54 52     93%     29.8 29.79      
Apr 04 06:53 Calm 10 Clear CLR 50 48     93%     29.78 29.77      
Apr 04 05:53 Calm 10 Clear CLR 51 50     96%     29.76 29.75      
Apr 04 04:53 Calm 10 Clear CLR 53 50     89%     29.74 29.74      
Apr 04 03:53 Calm 10 Clear CLR 52 49     89%     29.73 29.72      
Apr 04 02:53 Calm 10 Clear CLR 54 51     90%     29.72 29.72      
Apr 04 01:53 WNW 5 10 Clear CLR 57 51     81%     29.72 29.72      
Apr 04 00:53 WSW 3 10 Clear CLR 58 52     81%     29.71 29.7      
Apr 03 23:53 Calm 10 Clear CLR 59 52     78%     29.7 29.69      
Apr 03 22:53 W 7 10 Clear CLR 63 52     67%     29.68 29.67      
Apr 03 21:53 W 8 10 Clear CLR 62 54     75%     29.67 29.66      
Apr 03 20:53 W 7 10 Clear CLR 63 54     72%     29.63 29.63      
Apr 03 19:53 W 10 10 Mostly Clear FEW060 67 53     61%     29.59 29.58      
Apr 03 18:53 W 18 10 Mostly Cloudy FEW060 BKN075 68 53     59%     29.56 29.55      
Apr 03 17:53   10 Mostly Cloudy BKN070 69 53     57%     29.53 29.52      
Apr 03 16:53 W 20 10 Mostly Cloudy and Windy FEW065 BKN080 69 53     57%     29.51 29.5      
Apr 03 15:53 SW 25 10 Partly Cloudy and Windy FEW040 SCT055 71 57     61%   71 29.49 29.48      
Apr 03 14:53 SW 24 10 Clear and Windy   71 58     63%   71 29.49 29.49      
Apr 03 13:53 SW 24 10 Mostly Cloudy and Windy SCT034 SCT041 BKN095 70 58     66%     29.51 29.5      
Apr 03 12:53 WSW 21 10 Mostly Cloudy and Windy SCT027 BKN038 69 59     70%     29.52 29.52     0
Apr 03 11:53 SW 18 10 Mostly Cloudy FEW021 SCT031 BKN043 66 60     81%     29.55 29.55      
Apr 03 11:02 SW 15 10 Mostly Cloudy FEW008 SCT019 BKN060 66 62     87%     29.56        
Apr 03 10:53 SW 14 10 Cloudy SCT008 BKN016 OVC065 65 62     90%     29.56 29.56 0    
Apr 03 10:05 SSW 11 6 Clear   62 61     96%     29.56   0    
Apr 03 09:53 SSW 13 4 Clear   62 60     93%     29.56 29.55 0 0  
Apr 03 09:51 S 14 4 Clear   63 61     94%     29.56   0    
Apr 03 09:41 S 10 2.5 Rain and Fog/Mist OVC013 62 60     93%     29.56   0    
Apr 03 08:53 S 15 10 Cloudy BKN018 OVC025 63 58     84%     29.56 29.55      
Apr 03 08:06 S 8 10 Mostly Cloudy SCT018 BKN024 BKN044 62 58     86%     29.57        
Apr 03 07:53 S 7 10 Mostly Cloudy SCT019 BKN044 BKN065 62 58     86%     29.56 29.55      
Apr 03 06:53 SE 6 10 Cloudy OVC065 62 58     86%     29.56 29.55     0
Apr 03 05:53 SSW 10 10 Partly Cloudy SCT075 62 58     86%     29.59 29.58      
Apr 03 04:53 SSE 9 10 Clear CLR 63 59     87%     29.55 29.54      
Apr 03 04:09 SW 11 10 Mostly Cloudy SCT028 BKN035 63 60     90%     29.62        
Apr 03 03:53 SW 11 10 Cloudy SCT016 BKN022 OVC034 63 60     90%     29.61 29.6 0 0  
Apr 03 03:24   10 Mostly Cloudy BKN016 64 60     87%     29.6   0    
Apr 03 02:53 SW 8 10 Light Rain OVC016 64 60     87%     29.63 29.62 0    
Apr 03 01:53 E 8 10 Cloudy OVC014 63 59     87%     29.61 29.6 0    
Apr 03 01:09 SE 7 10 Light Rain BKN013 OVC022 62 58     86%     29.66   0    
Apr 03 00:53 Calm 10 Mostly Cloudy SCT013 BKN022 61 58     90%     29.66 29.65     0
Apr 03 00:44 NNW 5 10 Mostly Cloudy BKN013 BKN024 60 58     93%     29.67        
Apr 02 23:53 SSW 3 10 Clear CLR 60 57     90%     29.7 29.7      
Apr 02 23:44 SW 6 10 Mostly Clear FEW017 FEW022 60 57     90%     29.71        
Apr 02 22:53 S 3 10 Mostly Cloudy SCT015 BKN027 61 57     87%     29.72 29.71      
Apr 02 22:44 SSE 5 10 Mostly Cloudy SCT015 BKN029 61 57     87%     29.73        
Apr 02 21:53 ESE 13 10 Clear CLR 61 56     83%     29.69 29.68   0  
Apr 02 20:53   10 Mostly Clear FEW042 60 56     86%         0    
Apr 02 19:53 Calm 3 Rain and Fog/Mist BKN065 OVC085 60 58     93%     29.87 29.87 0    
Apr 02 19:46 NW 5 4 Heavy Rain and Fog/Mist BKN070 OVC085 60 58     93%     29.87   0    
Apr 02 19:30 NNW 5 4 Heavy Rain and Fog/Mist SCT065 OVC090 61 58     90%     29.86   0    
Apr 02 19:03 NW 6 5 Thunderstorms and Rain and Fog/Mist SCT075 OVC100 61 58     90%     29.86   0    
Apr 02 18:53 WNW 6 5 Rain and Fog/Mist BKN075 OVC100 62 58     86%     29.86 29.85 0   0
Apr 02 18:37 WNW 6 7 Light Rain OVC100 62 57     84%     29.84   0    
Apr 02 18:30 NNW 6 8 Rain OVC100 62 57     84%     29.82   0    
Apr 02 18:14 N 6 10 Thunderstorms and Rain FEW075 OVC110 64 56     75%     29.82   0    
Apr 02 17:53 NE 6 10 Light Rain FEW080 OVC110 65 55     70%     29.82 29.82 0    
Apr 02 17:50 NE 7 10 Light Rain FEW080 OVC110 66 54     64%     29.82   0    
Apr 02 16:53 NNE 10 10 Clear CLR 69 53     57%     29.8 29.79      
Apr 02 15:53 NE 9 10 Clear CLR 70 56     61%     29.84 29.83      
Apr 02 14:53 E 8 10 Clear CLR 72 53     51%   71 29.9 29.89      
Apr 02 13:53 E 10 10 Clear CLR 71 53     53%   70 29.91 29.91      
Apr 02 12:53 E 9 10 Clear CLR 68 52     57%     29.96 29.95      
Apr 02 11:53 ENE 13 10 Clear CLR 65 51     61%     29.99 29.99      
Apr 02 10:53 E 11 10 Clear CLR 60 49     67%     30.04 30.03      
Apr 02 09:53 ENE 14 10 Clear CLR 57 48     72%     30.05 30.05      
Apr 02 08:53 E 8 10 Clear CLR 54 47     77%     30.09 30.08      
Apr 02 07:53 E 10 10 Clear CLR 51 46     83%     30.09 30.09      
Apr 02 06:53 E 8 10 Clear CLR 50 45     83% 47   30.09 30.09      
Apr 02 05:53 ENE 8 10 Clear CLR 50 46     86% 47   30.07 30.06      
Apr 02 04:53 NE 10 10 Clear CLR 51 46     83%     30.07 30.06      
Apr 02 03:53 ENE 11 10 Clear CLR 51 46     83%     30.07 30.06      
Apr 02 02:53 ENE 10 10 Clear CLR 52 46     80%     30.08 30.08      
Apr 02 01:53 ENE 11 10 Clear CLR 53 46     77%     30.1 30.09      
Apr 02 00:53 NE 8 10 Clear CLR 52 46     80%     30.11 30.11      
Apr 01 23:53 NE 8 10 Clear CLR 52 46     80%     30.12 30.11      
Apr 01 21:53 NE 8 10 Clear CLR 54 47     77%     30.12 30.12      
Apr 01 20:53 NE 9 10 Clear CLR 54 47     77%     30.11 30.1      
Apr 01 19:53 NE 7 10 Clear CLR 54 48     80%     30.11 30.11      
Apr 01 18:53 ENE 11 10 Clear CLR 57 48     72%     30.11 30.1      
Apr 01 17:53 ENE 15 10 Clear CLR 59 48     67%     30.11 30.1      
Apr 01 16:53 NE 10 10 Clear   59 49     69%     30.13 30.13      
Apr 01 15:53 NNE 9 10 Clear CLR 59 49     69%     30.14 30.13      
Apr 01 14:53 NE 11 10 Clear CLR 58 49     72%     30.15 30.14      
Apr 01 14:13 NE 11 10 Mostly Clear FEW019 57 48     72%     30.16        
Apr 01 13:53 NE 13 10 Mostly Cloudy BKN018 56 48     75%     30.17 30.16      
Apr 01 12:53 ENE 13 10 Cloudy OVC017 53 46     77%     30.2 30.19      
Apr 01 11:53 ENE 10 10 Cloudy OVC017 53 46     77%     30.21 30.2      
Apr 01 10:53 ENE 11 10 Cloudy OVC015 52 45     77%     30.2 30.19      
Apr 01 09:53 NE 13 10 Cloudy OVC015 51 45     79%     30.18 30.18      
Apr 01 08:53 NE 16 10 Cloudy OVC014 50 44     80% 44   30.16 30.16      
Apr 01 08:30 NE 13 10 Cloudy OVC014 49 44     83% 44   30.16        
Apr 01 08:11 NE 14 10 Cloudy OVC015 49 44     83% 44   30.16        
Apr 01 07:53 NE 17 10 Cloudy OVC014 49 44     83% 43   30.15 30.15      
Apr 01 07:38 NE 13 10 Cloudy OVC014 49 45     86% 44   30.15        
Apr 01 07:00 ENE 10 10 Mostly Cloudy BKN016 48 44     86% 43   30.14        
Apr 01 06:53 NE 9 10 Partly Cloudy SCT017 48 44     86% 44   30.13 30.13      
Apr 01 05:53 NE 9 10 Clear CLR 47 43     86% 43   30.12 30.11      
Apr 01 04:53 NE 9 10 Clear CLR 48 45     89% 44   30.1 30.09      
Apr 01 03:53 ENE 8 10 Clear CLR 48 45     89% 44   30.08 30.08      
Apr 01 02:53 NE 9 10 Clear CLR 50 45     83% 46   30.06 30.06      
Apr 01 01:53 NE 11 10 Clear CLR 50 45     83% 46   30.05 30.05      
Apr 01 00:53 NE 14 10 Clear CLR 52 45     77%     30.04 30.03      
Mar 31 23:53 NE 11 10 Mostly Cloudy BKN037 52 47     83%     30.01 30.01      
Mar 31 22:53 NE 13 10 Mostly Clear FEW040 53 48     83%     30.01 30      
Mar 31 21:53 ENE 8 10 Clear CLR 55 50     83%     29.98 29.98      
Mar 31 20:53 NE 9 10 Clear CLR 58 50     75%     29.96 29.95      
Mar 31 19:53 NE 10 10 Clear CLR 60 51     72%     29.93 29.93      
Mar 31 18:53 Calm 10 Clear CLR 64 49     58%     29.9 29.9      
Mar 31 17:53 NNW 6 10 Clear CLR 67 49     52%     29.9 29.89      
Mar 31 16:53 NNW 3 10 Mostly Clear FEW040 66 50     56%     29.89 29.89      
Mar 31 15:53 NW 3 10 Clear CLR 65 51     61%     29.89 29.89      
Mar 31 14:53   10 Mostly Clear FEW034 64 51     63%     29.9 29.89      
Mar 31 13:53 N 8 10 Mostly Clear FEW032 63 50     63%     29.9 29.9      
Mar 31 11:53 WNW 9 10 Mostly Clear FEW024 59 48     67%     29.91 29.91      
Mar 31 11:31 NNW 10 10 Partly Cloudy SCT024 58 48     70%     29.91        
Mar 31 10:53 WNW 13 10 Cloudy OVC023 57 48     72%     29.91 29.9      
Mar 31 10:00 WNW 14 10 Mostly Cloudy BKN022 56 47     72%     29.88        
Mar 31 09:53 WNW 15 10 Partly Cloudy SCT022 55 46     72%     29.88 29.87      
Mar 31 08:53 W 11 10 Clear CLR 54 46     74%     29.85 29.85      
Mar 31 07:53 W 9 10 Clear CLR 52 46     80%     29.84 29.83      
Mar 31 07:29 W 5 10 Partly Cloudy SCT021 51 45     79%     29.82        
Mar 31 06:53 W 7 10 Cloudy OVC021 51 45     79%     29.81 29.8      
Mar 31 06:21 WNW 7 10 Mostly Cloudy BKN022 49 44     83% 46   29.8        
Mar 31 05:53 W 9 10 Clear CLR 50 44     80% 46   29.79 29.79      
Mar 31 04:53 W 8 10 Clear CLR 50 44     80% 47   29.77 29.77      
Mar 31 03:53 WNW 9 10 Clear CLR 51 44     77%     29.75 29.75      
Mar 31 02:53 W 8 10 Mostly Clear FEW029 52 44     74%     29.75 29.74      
Mar 31 02:42 W 9 10 Partly Cloudy SCT029 52 44     74%     29.75        
Mar 31 01:53 W 9 10 Cloudy OVC029 53 43     69%     29.74 29.74      
Mar 31 01:18 WNW 9 10 Cloudy OVC029 54 43     66%     29.74        
Mar 31 00:53 W 14 10 Cloudy OVC031 54 43     66%     29.75 29.74      
Mar 30 23:53 W 9 10 Cloudy BKN034 OVC080 54 44     69%     29.73 29.73      
Mar 30 22:53 W 11 10 Cloudy OVC037 54 44     69%     29.73 29.72      
Mar 30 21:53 W 11 10 Partly Cloudy SCT039 54 44     69%     29.71 29.71      
Mar 30 20:53 W 15 10 Clear   56 44     64%     29.7 29.69      
Mar 30 19:53 WSW 15 10 Mostly Cloudy BKN044 56 43     62%     29.68 29.68      
Mar 30 18:53 W 13 10 Cloudy OVC044 59 44     58%     29.67 29.66      
Mar 30 17:53 W 14 10 Clear   60 44     55%     29.66 29.65      
Mar 30 16:53 W 22 10 Mostly Cloudy and Windy BKN046 62 45     53%     29.65 29.64      
Mar 30 15:53 W 26 10 Mostly Clear and Breezy FEW049 64 48     56%     29.62 29.62      
Mar 30 14:53 WSW 22 10 Mostly Cloudy and Windy BKN040 66 51     59%     29.62 29.61      
Mar 30 13:53 WSW 21 10 Mostly Clear and Windy FEW045 67 53     61%     29.61 29.6      
Mar 30 12:53 SW 28 10 Clear and Breezy CLR 67 54     63%     29.61 29.6     0
Mar 30 12:09 WSW 21 10 Clear and Windy   65 57     76%     29.63        
Mar 30 11:53   10 Clear   64 57     78%     29.62 29.61 0    
Mar 30 11:42 WSW 23 10 Cloudy and Windy FEW022 BKN029 OVC041 66 60     81%     29.61   0    
Mar 30 10:53 SSW 26 9 Light Rain SCT022 BKN037 OVC075 67 61     81%     29.63 29.62 0    
Mar 30 10:16 SSW 23 10 Mostly Cloudy and Windy BKN018 BKN025 BKN110 68 61     78%     29.64        
Mar 30 09:53 S 17 10 Mostly Cloudy SCT019 BKN110 67 60     79%     29.64 29.63      
Mar 30 09:22 S 26 10 Mostly Cloudy and Breezy SCT019 BKN024 67 59     76%     29.64        
Mar 30 08:53 S 23 10 Partly Cloudy and Windy SCT020 67 60     79%     29.64 29.63      
Mar 30 07:53 S 15 10 Cloudy OVC021 64 59     84%     29.67 29.66      
Mar 30 07:42 S 14 10 Cloudy BKN022 BKN030 OVC036 64 59     84%     29.67        
Mar 30 06:53 S 18 10 Mostly Cloudy SCT048 BKN055 65 59     81%     29.66 29.65     0
Mar 30 05:53 S 21 10 Cloudy and Windy FEW032 BKN070 OVC095 64 59     84%     29.66 29.65      
Mar 30 04:53 S 23 10 Cloudy and Windy SCT060 BKN080 OVC100 67 57     71%     29.66 29.65 0    
Mar 30 03:53 S 15 10 Cloudy BKN035 BKN060 OVC080 66 59     78%     29.68 29.67   0  
Mar 30 02:53 S 9 10 Partly Cloudy SCT070 SCT120 66 60     81%     29.69 29.68      
Mar 30 01:53 S 10 10 Mostly Cloudy FEW065 BKN095 BKN120 68 61     78%     29.71 29.7 0    
Mar 30 00:53 S 15 9 Light Rain FEW060 SCT070 OVC090 70 60     71%     29.72 29.71 0   0
Mar 29 23:53 S 13 10 Mostly Cloudy FEW050 BKN080 BKN090 70 58     66%     29.73 29.72 0    
Mar 29 22:53 SSE 9 10 Mostly Cloudy FEW070 BKN090 70 58     66%     29.72 29.71      
Mar 29 21:53 SSE 9 10 Clear CLR 71 58     63%   71 29.74 29.73      
Mar 29 20:53 SSE 9 10 Partly Cloudy SCT110 71 59     66%   71 29.78 29.78      
Mar 29 19:53 S 9 10 Clear CLR 72 59     64%   72 29.78 29.78      
Mar 29 18:53 S 13 10 Clear CLR 76 61     60%   76 29.78 29.78      
Mar 29 17:53 SSE 15 10 Clear CLR 77 60     56%   77 29.77 29.77      
Mar 29 16:53 S 14 10 Clear CLR 78 61     56%   78 29.79 29.78      
Mar 29 15:53 S 14 10 Clear CLR 78 60     54%   78 29.8 29.79      
Mar 29 14:53 S 17 10 Clear CLR 79 63     58%   79 29.82 29.81      
Mar 29 13:53 SSE 20 10 Mostly Clear and Windy FEW036 78 63     60%   78 29.84 29.83      
Mar 29 12:53 SSE 18 10 Partly Cloudy SCT024 75 64     69%   75 29.89 29.88      
Mar 29 11:53 S 16 10 Mostly Clear FEW020 72 64     76%   72 29.92 29.91      
Mar 29 10:53 S 15 10 Clear CLR 70 61     73%     29.96 29.95      
Mar 29 09:53 SE 8 10 Mostly Clear FEW060 64 57     78%     29.95 29.95      
Mar 29 08:53 E 8 10 Mostly Cloudy BKN100 59 55     87%     29.97 29.96      
Mar 29 07:53 E 6 8 Mostly Cloudy FEW032 SCT041 BKN048 58 54     87%     29.96 29.95      
Mar 29 06:53 ENE 11 6 Fog/Mist BKN070 56 53     90%     29.9 29.89      
Mar 29 05:53 ENE 14 8 Mostly Cloudy SCT049 BKN060 56 53     90%     29.91 29.9      
Mar 29 04:53 ENE 13 8 Mostly Clear FEW095 55 53     93%     29.91 29.91      
Mar 29 03:53 ENE 13 9 Mostly Cloudy BKN055 55 53     93%     29.92 29.92      
Mar 29 02:53 ENE 15 10 Mostly Clear FEW085 56 53     90%     29.94 29.93      
Mar 29 01:53 ENE 14 10 Mostly Cloudy FEW060 FEW070 BKN090 56 53     90%     29.97 29.96      
Mar 29 00:53 ENE 15 10 Cloudy OVC060 57 53     87%     29.99 29.99      
Mar 28 23:53 ENE 14 10 Clear CLR 56 53     90%     29.99 29.98      
Mar 28 22:53 NE 13 10 Clear CLR 58 53     84%     30 29.99      
Mar 28 21:53 NE 14 10 Clear CLR 59 54     83%     29.99 29.99      
Mar 28 20:53 NE 14 10 Clear CLR 60 54     80%     30 30      
Mar 28 19:53 NE 10 10 Clear CLR 61 55     81%     29.99 29.98      
Mar 28 18:53 ENE 10 10 Clear CLR 64 56     75%     29.98 29.97      
Mar 28 17:53 ENE 14 10 Mostly Clear FEW026 66 56     70%     29.96 29.96      
Mar 28 16:53 ENE 15 10 Clear CLR 68 56     65%     29.96 29.96      
Mar 28 15:53 ENE 11 10 Clear CLR 67 56     68%     29.98 29.97      
Mar 28 14:53 ENE 14 10 Clear CLR 67 57     71%     30.01 30      
Mar 28 13:53 ENE 8 10 Mostly Clear FEW022 66 56     70%     30.03 30.02      
Mar 28 13:20 ENE 10 10 Mostly Clear FEW020 65 56     73%     30.04        
Mar 28 12:53 NE 11 10 Mostly Cloudy BKN020 64 56     75%     30.05 30.04      
Mar 28 12:10 NE 8 10 Mostly Cloudy BKN019 64 55     73%     30.06        
Mar 28 11:53 E 10 10 Partly Cloudy SCT020 64 55     73%     30.06 30.05      
Mar 28 10:53 NE 11 10 Cloudy OVC016 61 54     78%     30.06 30.06